Othello — LXOD — position and weather

sailwx.info

Track history (hours):
 
Tides and Currents Weather Stations Pressure Air Temp Water Temp Dewpoint Dewpoint Depression Visibility Wind Speed Wind Dir Waves Ship Positions

Othello

Last reported at 2014-Oct-31 03:25 UTC. Time now 2014-Nov-01 11:59 UTC.
Position N 46°33' W 007°41'.

Length 104 m; draft 7.5 m.

Type: Ship. MMSI: 253279000.

Date/timePositionNaut miles runAvg speedWind from/ knotsBaromVisibWave heightAir tempDewpointWater temp
2014-Oct-31 03:25N 46°33' W 007°41'26413.0
2014-Oct-30 07:04N 49°50' W 003°17'2315.0
2014-Oct-30 05:31N 50°01' W 002°45'3115.6
2014-Oct-30 03:33N 50°10' W 001°59'1814.0
2014-Oct-30 02:15N 50°14' W 001°31'1112.6
2014-Oct-30 01:23N 50°16' W 001°15'1011.6
2014-Oct-30 00:29N 50°19' W 000°59'1111.3
2014-Oct-29 23:33N 50°22' W 000°43'1211.8
2014-Oct-29 22:30N 50°25' W 000°24'1313.3
2014-Oct-29 21:33N 50°29' W 000°05'1514.5
2014-Oct-29 20:33N 50°33' E 000°16'1515.1
2014-Oct-29 19:33N 50°38' E 000°39'1514.9
2014-Oct-29 18:33N 50°48' E 000°57'1413.8
2014-Oct-29 17:33N 50°56' E 001°14'1212.1
2014-Oct-29 16:33N 51°04' E 001°28'1111.2
2014-Oct-29 15:34N 51°11' E 001°42'1212.0
2014-Oct-29 14:34N 51°21' E 001°54'1111.1
2014-Oct-29 13:33N 51°22' E 002°11'1413.7
2014-Oct-29 12:33N 51°23' E 002°33'1313.2
2014-Oct-29 11:33N 51°22' E 002°55'1514.7
2014-Oct-29 10:33N 51°25' E 003°18'1414.4
2014-Oct-29 09:34N 51°26' E 003°41'1111.0
2014-Oct-29 08:34N 51°26' E 003°58'1211.5
2014-Oct-29 07:34N 51°21' E 004°15'5 5.4
2014-Oct-29 06:33N 51°17' E 004°20'2 2.2
2014-Oct-29 05:33N 51°15' E 004°23'0 0.1
2014-Oct-29 04:32N 51°15' E 004°23'0 0.0
2014-Oct-29 03:32N 51°15' E 004°23'0 0.0
2014-Oct-29 02:32N 51°15' E 004°23'0 0.0
2014-Oct-29 01:29N 51°15' E 004°23'0 0.0
2014-Oct-29 00:32N 51°15' E 004°23'0 0.0
2014-Oct-28 23:32N 51°15' E 004°23'0 0.0
2014-Oct-28 22:32N 51°15' E 004°23'0 0.0
2014-Oct-28 21:32N 51°15' E 004°23'0 0.0
2014-Oct-28 20:29N 51°15' E 004°23'0 0.0
2014-Oct-28 19:32N 51°15' E 004°23'0 0.0
2014-Oct-28 18:26N 51°15' E 004°23'0 0.0
2014-Oct-28 17:32N 51°15' E 004°23'0 0.0
2014-Oct-28 16:32N 51°15' E 004°23'3 0.2
2014-Oct-28 02:31N 51°18' E 004°20'0 0.0
2014-Oct-27 19:11N 51°17' E 004°20'0 0.0
2014-Oct-27 18:14N 51°17' E 004°20'0 0.0
2014-Oct-27 13:17N 51°17' E 004°20'0 0.0
2014-Oct-27 12:23N 51°17' E 004°20'0 0.0
2014-Oct-27 11:32N 51°17' E 004°20'0 0.0
2014-Oct-27 07:23N 51°17' E 004°20'1 1.1
2014-Oct-27 06:33N 51°16' E 004°21'0 0.5
2014-Oct-27 05:33N 51°17' E 004°20'9 8.8
2014-Oct-27 04:33N 51°24' E 004°12'8 8.1
2014-Oct-27 03:33N 51°26' E 003°59'9 9.2
2014-Oct-27 02:33N 51°21' E 003°46'9 9.3
2014-Oct-27 01:33N 51°26' E 003°34'1111.3
2014-Oct-27 00:33N 51°35' E 003°23'1010.3
2014-Oct-26 23:33N 51°45' E 003°19'0 0.3
2014-Oct-26 22:32N 51°45' E 003°19'0 0.0
2014-Oct-26 21:29N 51°45' E 003°19'0 0.2
2014-Oct-26 20:32N 51°45' E 003°19'0 0.1
2014-Oct-26 19:32N 51°46' E 003°19'0 0.0
2014-Oct-26 18:23N 51°46' E 003°19'0 0.0
2014-Oct-26 17:17N 51°46' E 003°19'0 0.0
2014-Oct-26 16:32N 51°46' E 003°19'0 0.0
2014-Oct-26 14:17N 51°46' E 003°19'0 0.0
2014-Oct-26 13:32N 51°45' E 003°19'0 0.0
2014-Oct-26 12:26N 51°45' E 003°19'0 0.1
2014-Oct-26 11:32N 51°45' E 003°19'0 0.0
2014-Oct-26 10:32N 51°45' E 003°19'0 0.0
2014-Oct-26 09:32N 51°45' E 003°19'0 0.1
2014-Oct-26 08:32N 51°45' E 003°19'0 0.1
2014-Oct-26 07:29N 51°45' E 003°19'0 0.0
2014-Oct-26 06:29N 51°46' E 003°19'0 0.0
2014-Oct-26 05:32N 51°46' E 003°19'0 0.0
2014-Oct-26 04:32N 51°46' E 003°19'0 0.0
2014-Oct-26 03:32N 51°45' E 003°19'0 0.0
2014-Oct-26 02:32N 51°45' E 003°19'0 0.0
2014-Oct-26 01:32N 51°45' E 003°19'0 0.1
2014-Oct-26 00:29N 51°45' E 003°19'0 0.1
2014-Oct-25 23:32N 51°45' E 003°19'0 0.1
2014-Oct-25 22:32N 51°45' E 003°19'0 0.1
2014-Oct-25 19:32N 51°45' E 003°19'0 0.0
2014-Oct-25 18:29N 51°46' E 003°19'0 0.0
2014-Oct-25 17:32N 51°46' E 003°19'0 0.0
2014-Oct-25 12:29N 51°45' E 003°19'0 0.0
2014-Oct-25 06:11N 51°46' E 003°19'0 0.0
2014-Oct-25 01:32N 51°46' E 003°19'0 0.0
2014-Oct-25 00:32N 51°46' E 003°19'0 0.0
2014-Oct-24 23:32N 51°46' E 003°19'0 0.1
2014-Oct-24 22:26N 51°46' E 003°19'45 4.5
2014-Oct-24 12:27N 52°14' E 002°23'12 9.7
2014-Oct-24 11:13N 52°25' E 002°17'710.6
2014-Oct-24 10:33N 52°32' E 002°13'1110.8
2014-Oct-24 09:32N 52°42' E 002°07'1211.9
2014-Oct-24 08:33N 52°49' E 001°51'1312.5
2014-Oct-24 07:33N 52°57' E 001°35'1211.9
2014-Oct-24 06:33N 53°07' E 001°24'4511.1
2014-Oct-24 02:33N 53°45' E 000°45'1010.2
2014-Oct-24 01:33N 53°53' E 000°36'9 9.5
2014-Oct-24 00:33N 54°01' E 000°27'9 8.8
2014-Oct-23 23:33N 54°08' E 000°19'8 8.0
2014-Oct-23 22:33N 54°15' E 000°12'8 7.9
2014-Oct-23 21:33N 54°22' E 000°05'8 8.0
2014-Oct-23 20:33N 54°29' W 000°03'8 8.4
2014-Oct-23 19:33N 54°36' W 000°11'9 8.8
2014-Oct-23 18:33N 54°42' W 000°22'10 9.7
2014-Oct-23 17:33N 54°47' W 000°36'11 8.1
2014-Oct-23 16:08N 54°45' W 000°56'6 9.5
2014-Oct-23 15:33N 54°41' W 001°04'7 5.3
2014-Oct-23 14:15N 54°36' W 001°11'0 0.0
2014-Oct-23 09:30N 54°36' W 001°11'0 0.0
2014-Oct-23 07:34N 54°36' W 001°11'0 0.0
2014-Oct-22 10:24N 54°36' W 001°11'2 1.9
2014-Oct-22 09:33N 54°37' W 001°09'10 9.6
2014-Oct-22 08:33N 54°38' W 000°53'1311.7
2014-Oct-22 07:25N 54°32' W 000°32'910.5
2014-Oct-22 06:33N 54°25' W 000°22'10 9.7
2014-Oct-22 05:33N 54°17' W 000°12'9 9.0
2014-Oct-22 04:33N 54°10' W 000°03'8 8.4
2014-Oct-22 03:33N 54°03' E 000°05'8 7.9
2014-Oct-22 02:33N 53°56' E 000°12'8 7.7
2014-Oct-22 01:33N 53°49' E 000°18'7 7.5
2014-Oct-22 00:33N 53°43' E 000°25'8 7.9
2014-Oct-21 23:33N 53°37' E 000°34'9 8.6
2014-Oct-21 22:32N 53°32' E 000°46'31 6.2
2014-Oct-21 17:33N 53°09' E 001°20'2 1.7
2014-Oct-21 16:34N 53°08' E 001°22'3 2.7
2014-Oct-21 15:33N 53°06' E 001°25'5 4.8
2014-Oct-21 14:33N 53°01' E 001°29'8 7.6
2014-Oct-21 13:33N 52°56' E 001°37'1111.4
2014-Oct-21 12:33N 52°49' E 001°52'1211.8
2014-Oct-21 11:30N 52°41' E 002°08'1111.6
2014-Oct-21 10:32N 52°31' E 002°14'5210.0
2014-Oct-21 05:22N 51°46' E 002°55'810.4
2014-Oct-21 04:33N 51°45' E 003°09'10 9.6
2014-Oct-21 03:33N 51°38' E 003°20'  
Track history (hours):
 
Tides and Currents Weather Stations Pressure Air Temp Water Temp Dewpoint Dewpoint Depression Visibility Wind Speed Wind Dir Waves Ship Positions

Othello

Last reported at 2014-Oct-31 03:25 UTC. Time now 2014-Nov-01 11:59 UTC.
Position N 46°33' W 007°41'.

Length 104 m; draft 7.5 m.

Type: Ship. MMSI: 253279000.

Date/timePositionNaut miles runAvg speedWind from/ knotsBaromVisibWave heightAir tempDewpointWater temp
2014-Oct-31 03:25N 46°33' W 007°41'26413.0
2014-Oct-30 07:04N 49°50' W 003°17'2315.0
2014-Oct-30 05:31N 50°01' W 002°45'3115.6
2014-Oct-30 03:33N 50°10' W 001°59'1814.0
2014-Oct-30 02:15N 50°14' W 001°31'1112.6
2014-Oct-30 01:23N 50°16' W 001°15'1011.6
2014-Oct-30 00:29N 50°19' W 000°59'1111.3
2014-Oct-29 23:33N 50°22' W 000°43'1211.8
2014-Oct-29 22:30N 50°25' W 000°24'1313.3
2014-Oct-29 21:33N 50°29' W 000°05'1514.5
2014-Oct-29 20:33N 50°33' E 000°16'1515.1
2014-Oct-29 19:33N 50°38' E 000°39'1514.9
2014-Oct-29 18:33N 50°48' E 000°57'1413.8
2014-Oct-29 17:33N 50°56' E 001°14'1212.1
2014-Oct-29 16:33N 51°04' E 001°28'1111.2
2014-Oct-29 15:34N 51°11' E 001°42'1212.0
2014-Oct-29 14:34N 51°21' E 001°54'1111.1
2014-Oct-29 13:33N 51°22' E 002°11'1413.7
2014-Oct-29 12:33N 51°23' E 002°33'1313.2
2014-Oct-29 11:33N 51°22' E 002°55'1514.7
2014-Oct-29 10:33N 51°25' E 003°18'1414.4
2014-Oct-29 09:34N 51°26' E 003°41'1111.0
2014-Oct-29 08:34N 51°26' E 003°58'1211.5
2014-Oct-29 07:34N 51°21' E 004°15'5 5.4
2014-Oct-29 06:33N 51°17' E 004°20'2 2.2
2014-Oct-29 05:33N 51°15' E 004°23'0 0.1
2014-Oct-29 04:32N 51°15' E 004°23'0 0.0
2014-Oct-29 03:32N 51°15' E 004°23'0 0.0
2014-Oct-29 02:32N 51°15' E 004°23'0 0.0
2014-Oct-29 01:29N 51°15' E 004°23'0 0.0
2014-Oct-29 00:32N 51°15' E 004°23'0 0.0
2014-Oct-28 23:32N 51°15' E 004°23'0 0.0
2014-Oct-28 22:32N 51°15' E 004°23'0 0.0
2014-Oct-28 21:32N 51°15' E 004°23'0 0.0
2014-Oct-28 20:29N 51°15' E 004°23'0 0.0
2014-Oct-28 19:32N 51°15' E 004°23'0 0.0
2014-Oct-28 18:26N 51°15' E 004°23'0 0.0
2014-Oct-28 17:32N 51°15' E 004°23'0 0.0
2014-Oct-28 16:32N 51°15' E 004°23'3 0.2
2014-Oct-28 02:31N 51°18' E 004°20'0 0.0
2014-Oct-27 19:11N 51°17' E 004°20'0 0.0
2014-Oct-27 18:14N 51°17' E 004°20'0 0.0
2014-Oct-27 13:17N 51°17' E 004°20'0 0.0
2014-Oct-27 12:23N 51°17' E 004°20'0 0.0
2014-Oct-27 11:32N 51°17' E 004°20'0 0.0
2014-Oct-27 07:23N 51°17' E 004°20'1 1.1
2014-Oct-27 06:33N 51°16' E 004°21'0 0.5
2014-Oct-27 05:33N 51°17' E 004°20'9 8.8
2014-Oct-27 04:33N 51°24' E 004°12'8 8.1
2014-Oct-27 03:33N 51°26' E 003°59'9 9.2
2014-Oct-27 02:33N 51°21' E 003°46'9 9.3
2014-Oct-27 01:33N 51°26' E 003°34'1111.3
2014-Oct-27 00:33N 51°35' E 003°23'1010.3
2014-Oct-26 23:33N 51°45' E 003°19'0 0.3
2014-Oct-26 22:32N 51°45' E 003°19'0 0.0
2014-Oct-26 21:29N 51°45' E 003°19'0 0.2
2014-Oct-26 20:32N 51°45' E 003°19'0 0.1
2014-Oct-26 19:32N 51°46' E 003°19'0 0.0
2014-Oct-26 18:23N 51°46' E 003°19'0 0.0
2014-Oct-26 17:17N 51°46' E 003°19'0 0.0
2014-Oct-26 16:32N 51°46' E 003°19'0 0.0
2014-Oct-26 14:17N 51°46' E 003°19'0 0.0
2014-Oct-26 13:32N 51°45' E 003°19'0 0.0
2014-Oct-26 12:26N 51°45' E 003°19'0 0.1
2014-Oct-26 11:32N 51°45' E 003°19'0 0.0
2014-Oct-26 10:32N 51°45' E 003°19'0 0.0
2014-Oct-26 09:32N 51°45' E 003°19'0 0.1
2014-Oct-26 08:32N 51°45' E 003°19'0 0.1
2014-Oct-26 07:29N 51°45' E 003°19'0 0.0
2014-Oct-26 06:29N 51°46' E 003°19'0 0.0
2014-Oct-26 05:32N 51°46' E 003°19'0 0.0
2014-Oct-26 04:32N 51°46' E 003°19'0 0.0
2014-Oct-26 03:32N 51°45' E 003°19'0 0.0
2014-Oct-26 02:32N 51°45' E 003°19'0 0.0
2014-Oct-26 01:32N 51°45' E 003°19'0 0.1
2014-Oct-26 00:29N 51°45' E 003°19'0 0.1
2014-Oct-25 23:32N 51°45' E 003°19'0 0.1
2014-Oct-25 22:32N 51°45' E 003°19'0 0.1
2014-Oct-25 19:32N 51°45' E 003°19'0 0.0
2014-Oct-25 18:29N 51°46' E 003°19'0 0.0
2014-Oct-25 17:32N 51°46' E 003°19'0 0.0
2014-Oct-25 12:29N 51°45' E 003°19'0 0.0
2014-Oct-25 06:11N 51°46' E 003°19'0 0.0
2014-Oct-25 01:32N 51°46' E 003°19'0 0.0
2014-Oct-25 00:32N 51°46' E 003°19'0 0.0
2014-Oct-24 23:32N 51°46' E 003°19'0 0.1
2014-Oct-24 22:26N 51°46' E 003°19'45 4.5
2014-Oct-24 12:27N 52°14' E 002°23'12 9.7
2014-Oct-24 11:13N 52°25' E 002°17'710.6
2014-Oct-24 10:33N 52°32' E 002°13'1110.8
2014-Oct-24 09:32N 52°42' E 002°07'1211.9
2014-Oct-24 08:33N 52°49' E 001°51'1312.5
2014-Oct-24 07:33N 52°57' E 001°35'1211.9
2014-Oct-24 06:33N 53°07' E 001°24'4511.1
2014-Oct-24 02:33N 53°45' E 000°45'1010.2
2014-Oct-24 01:33N 53°53' E 000°36'9 9.5
2014-Oct-24 00:33N 54°01' E 000°27'9 8.8
2014-Oct-23 23:33N 54°08' E 000°19'8 8.0
2014-Oct-23 22:33N 54°15' E 000°12'8 7.9
2014-Oct-23 21:33N 54°22' E 000°05'8 8.0
2014-Oct-23 20:33N 54°29' W 000°03'8 8.4
2014-Oct-23 19:33N 54°36' W 000°11'9 8.8
2014-Oct-23 18:33N 54°42' W 000°22'10 9.7
2014-Oct-23 17:33N 54°47' W 000°36'11 8.1
2014-Oct-23 16:08N 54°45' W 000°56'6 9.5
2014-Oct-23 15:33N 54°41' W 001°04'7 5.3
2014-Oct-23 14:15N 54°36' W 001°11'0 0.0
2014-Oct-23 09:30N 54°36' W 001°11'0 0.0
2014-Oct-23 07:34N 54°36' W 001°11'0 0.0
2014-Oct-22 10:24N 54°36' W 001°11'2 1.9
2014-Oct-22 09:33N 54°37' W 001°09'10 9.6
2014-Oct-22 08:33N 54°38' W 000°53'1311.7
2014-Oct-22 07:25N 54°32' W 000°32'910.5
2014-Oct-22 06:33N 54°25' W 000°22'10 9.7
2014-Oct-22 05:33N 54°17' W 000°12'9 9.0
2014-Oct-22 04:33N 54°10' W 000°03'8 8.4
2014-Oct-22 03:33N 54°03' E 000°05'8 7.9
2014-Oct-22 02:33N 53°56' E 000°12'8 7.7
2014-Oct-22 01:33N 53°49' E 000°18'7 7.5
2014-Oct-22 00:33N 53°43' E 000°25'8 7.9
2014-Oct-21 23:33N 53°37' E 000°34'9 8.6
2014-Oct-21 22:32N 53°32' E 000°46'31 6.2
2014-Oct-21 17:33N 53°09' E 001°20'2 1.7
2014-Oct-21 16:34N 53°08' E 001°22'3 2.7
2014-Oct-21 15:33N 53°06' E 001°25'5 4.8
2014-Oct-21 14:33N 53°01' E 001°29'8 7.6
2014-Oct-21 13:33N 52°56' E 001°37'1111.4
2014-Oct-21 12:33N 52°49' E 001°52'1211.8
2014-Oct-21 11:30N 52°41' E 002°08'1111.6
2014-Oct-21 10:32N 52°31' E 002°14'5210.0
2014-Oct-21 05:22N 51°46' E 002°55'810.4
2014-Oct-21 04:33N 51°45' E 003°09'10 9.6
2014-Oct-21 03:33N 51°38' E 003°20'  

Dump ship's entire track history